Total_Precipitation_Accumulation
0.89 1.13 0.99 0.68 0.68 0.60 0.49 0.49 0.39 0.23 0.20 0.36 0.35 0.26 0.21 0.21 0.23 0.25 0.26 0.33 0.33 0.36 0.43 0.49 0.63 0.75 0.86 0.96 1.12 1.34 1.50 1.67 1.90 2.06 2.13 2.11 2.06 1.92 1.85 1.80 1.75 1.73 1.75 1.79
0.98 0.87 0.46 0.35 0.44 0.53 0.56 0.63 0.49 0.34 0.24 0.38 0.37 0.27 0.22 0.21 0.24 0.27 0.27 0.34 0.35 0.36 0.44 0.48 0.59 0.75 0.82 0.89 0.98 1.20 1.42 1.57 1.77 1.93 1.96 2.06 2.04 1.97 1.87 1.81 1.77 1.71 1.70 1.79
0.76 0.50 0.32 0.41 0.54 0.68 0.61 0.56 0.48 0.46 0.40 0.43 0.49 0.42 0.24 0.21 0.20 0.24 0.26 0.31 0.33 0.38 0.41 0.43 0.54 0.68 0.80 0.85 0.94 1.09 1.31 1.49 1.62 1.87 2.14 2.34 2.41 2.25 2.11 1.94 1.80 1.70 1.67 1.69
0.56 0.34 0.36 0.49 0.57 0.66 0.67 0.37 0.42 0.51 0.76 0.80 0.65 0.75 0.29 0.21 0.18 0.22 0.26 0.28 0.29 0.34 0.36 0.38 0.47 0.61 0.73 0.82 0.97 1.11 1.20 1.40 1.61 1.76 2.04 2.30 2.42 2.26 1.95 1.85 1.82 1.78 1.72 1.71
0.69 0.38 0.44 0.51 0.43 0.51 0.55 0.40 0.45 0.58 0.89 1.03 0.68 0.79 0.36 0.22 0.22 0.21 0.25 0.27 0.28 0.32 0.36 0.37 0.43 0.52 0.64 0.82 0.98 1.13 1.22 1.37 1.62 1.80 1.91 2.20 2.38 2.28 2.11 1.99 1.89 1.80 1.78 1.76
0.54 0.40 0.48 0.41 0.31 0.42 0.53 0.64 0.75 0.88 1.41 1.71 0.64 0.61 0.43 0.31 0.32 0.26 0.26 0.30 0.31 0.34 0.40 0.39 0.43 0.52 0.60 0.79 0.91 1.11 1.25 1.31 1.55 1.78 1.93 2.07 2.31 2.42 2.32 2.18 2.07 1.92 1.86 1.80
0.71 0.53 0.51 0.44 0.54 0.61 0.86 1.46 2.14 2.34 2.38 1.43 0.34 0.44 0.48 0.31 0.29 0.34 0.38 0.38 0.38 0.38 0.42 0.44 0.46 0.53 0.56 0.74 0.86 1.03 1.25 1.27 1.37 1.56 1.78 1.97 2.16 2.35 2.46 2.31 2.11 2.01 1.99 1.91
0.88 0.71 0.55 0.55 0.67 0.81 0.89 1.29 1.73 1.62 1.08 0.53 0.30 0.43 0.41 0.32 0.29 0.29 0.33 0.37 0.35 0.37 0.41 0.47 0.50 0.52 0.55 0.62 0.73 0.90 1.14 1.22 1.25 1.36 1.53 1.82 2.08 2.27 2.38 2.41 2.21 2.05 1.96 1.86
1.00 0.66 0.39 0.39 0.41 0.54 0.86 0.95 0.87 1.20 0.86 0.56 0.45 0.39 0.31 0.21 0.19 0.21 0.27 0.33 0.35 0.39 0.43 0.49 0.58 0.58 0.60 0.61 0.66 0.81 1.06 1.18 1.16 1.25 1.36 1.55 1.84 2.12 2.26 2.31 2.30 2.18 2.04 1.92
1.18 0.89 0.46 0.42 0.52 0.59 0.69 0.85 0.99 1.53 1.38 0.83 0.50 0.37 0.45 0.34 0.26 0.23 0.26 0.34 0.39 0.40 0.45 0.50 0.61 0.65 0.66 0.63 0.66 0.79 0.95 1.17 1.20 1.20 1.28 1.39 1.55 1.81 2.05 2.24 2.35 2.21 2.11 2.04
1.07 1.17 0.77 0.69 0.89 0.92 0.81 1.06 1.27 1.30 1.05 0.91 0.70 0.57 0.60 0.49 0.40 0.35 0.31 0.35 0.41 0.43 0.49 0.54 0.60 0.67 0.70 0.68 0.70 0.80 0.92 1.09 1.26 1.30 1.27 1.37 1.50 1.70 1.87 1.96 2.12 2.22 2.21 2.12
1.02 1.31 1.00 0.69 0.63 0.64 0.82 0.96 1.11 1.35 1.03 0.64 0.68 0.64 0.50 0.42 0.39 0.37 0.35 0.34 0.40 0.47 0.54 0.58 0.61 0.63 0.66 0.71 0.74 0.76 0.91 1.05 1.18 1.31 1.34 1.38 1.49 1.70 1.83 1.81 1.82 1.95 2.15 2.16
1.50 1.74 1.41 1.06 0.94 0.84 1.00 0.91 0.90 1.02 0.96 0.74 0.67 0.52 0.36 0.31 0.32 0.32 0.34 0.34 0.40 0.45 0.53 0.57 0.56 0.59 0.68 0.71 0.75 0.74 0.82 0.99 1.14 1.27 1.35 1.34 1.47 1.60 1.68 1.71 1.71 1.70 1.86 2.04
1.68 1.72 1.31 1.20 1.10 1.01 0.98 0.79 0.75 1.05 1.22 0.74 0.48 0.39 0.33 0.32 0.33 0.33 0.35 0.37 0.40 0.43 0.48 0.55 0.59 0.61 0.71 0.75 0.73 0.76 0.82 0.95 1.14 1.30 1.42 1.38 1.45 1.57 1.60 1.61 1.64 1.61 1.67 1.84
1.34 1.35 0.70 0.47 0.41 0.53 0.60 0.56 0.60 0.81 0.79 0.70 0.46 0.38 0.41 0.43 0.48 0.47 0.45 0.42 0.38 0.42 0.47 0.52 0.62 0.72 0.73 0.76 0.75 0.80 0.90 0.94 1.11 1.31 1.48 1.48 1.46 1.52 1.57 1.57 1.64 1.66 1.68 1.74
1.11 1.14 0.60 0.38 0.28 0.37 0.45 0.39 0.44 0.50 0.52 0.49 0.38 0.42 0.39 0.40 0.38 0.42 0.44 0.44 0.44 0.47 0.50 0.49 0.57 0.67 0.74 0.78 0.77 0.82 0.92 0.96 1.04 1.21 1.38 1.47 1.46 1.51 1.54 1.52 1.59 1.66 1.68 1.69
1.07 1.07 0.94 0.56 0.29 0.52 0.71 0.53 0.50 0.51 0.52 0.52 0.52 0.49 0.40 0.38 0.40 0.46 0.49 0.51 0.53 0.56 0.56 0.54 0.59 0.66 0.72 0.78 0.78 0.82 0.91 0.94 0.98 1.10 1.27 1.38 1.41 1.43 1.45 1.45 1.53 1.62 1.66 1.61
0.93 1.05 1.28 0.87 0.64 1.05 0.78 0.44 0.45 0.51 0.55 0.55 0.54 0.47 0.44 0.45 0.47 0.46 0.47 0.54 0.59 0.60 0.60 0.60 0.64 0.67 0.68 0.72 0.79 0.82 0.84 0.88 0.92 1.03 1.19 1.36 1.38 1.38 1.36 1.38 1.42 1.50 1.56 1.57
0.58 1.03 1.53 1.25 0.93 0.67 0.44 0.31 0.46 0.57 0.60 0.54 0.46 0.38 0.36 0.37 0.37 0.40 0.41 0.44 0.53 0.58 0.59 0.61 0.66 0.69 0.66 0.67 0.74 0.79 0.83 0.85 0.92 1.05 1.17 1.30 1.38 1.36 1.31 1.34 1.36 1.38 1.39 1.45
0.68 1.10 1.71 1.46 1.11 0.69 0.46 0.24 0.30 0.50 0.68 0.44 0.39 0.37 0.37 0.38 0.48 0.46 0.40 0.38 0.43 0.45 0.51 0.58 0.61 0.61 0.60 0.64 0.68 0.73 0.81 0.83 0.90 1.07 1.18 1.24 1.29 1.31 1.28 1.29 1.33 1.31 1.26 1.28
1.01 1.53 1.69 1.23 1.02 0.52 0.31 0.20 0.26 0.64 0.75 0.40 0.35 0.37 0.38 0.49 0.57 0.48 0.40 0.38 0.40 0.45 0.49 0.52 0.55 0.56 0.60 0.62 0.65 0.69 0.75 0.84 0.90 1.00 1.06 1.14 1.20 1.22 1.18 1.22 1.23 1.24 1.23 1.21
0.76 1.06 1.08 1.02 1.12 0.62 0.28 0.28 0.56 0.69 0.36 0.30 0.28 0.30 0.33 0.37 0.36 0.34 0.37 0.39 0.42 0.46 0.47 0.49 0.52 0.53 0.55 0.58 0.59 0.63 0.73 0.82 0.85 0.86 0.90 1.01 1.12 1.14 1.10 1.17 1.16 1.13 1.17 1.20
0.61 0.86 0.90 0.85 0.75 0.51 0.38 0.46 0.48 0.41 0.34 0.26 0.27 0.26 0.30 0.33 0.34 0.36 0.38 0.40 0.44 0.47 0.48 0.49 0.50 0.48 0.50 0.55 0.56 0.61 0.69 0.74 0.84 0.83 0.85 0.92 1.02 1.09 1.10 1.13 1.13 1.13 1.11 1.12
0.45 0.49 0.64 0.57 0.44 0.37 0.35 0.33 0.29 0.26 0.29 0.27 0.27 0.29 0.31 0.34 0.35 0.38 0.39 0.42 0.46 0.50 0.51 0.52 0.49 0.49 0.54 0.57 0.58 0.61 0.67 0.71 0.79 0.81 0.84 0.89 0.97 1.08 1.08 1.09 1.09 1.11 1.13 1.19
0.38 0.41 0.49 0.47 0.34 0.28 0.24 0.24 0.26 0.23 0.21 0.22 0.22 0.25 0.30 0.32 0.35 0.38 0.41 0.45 0.49 0.52 0.52 0.51 0.48 0.50 0.54 0.56 0.58 0.60 0.63 0.69 0.76 0.79 0.81 0.86 0.91 1.05 1.08 1.11 1.12 1.12 1.10 1.28
0.29 0.38 0.46 0.42 0.32 0.37 0.29 0.24 0.25 0.25 0.24 0.24 0.25 0.26 0.26 0.30 0.35 0.38 0.44 0.48 0.49 0.50 0.48 0.46 0.46 0.48 0.54 0.55 0.58 0.59 0.62 0.67 0.73 0.78 0.81 0.81 0.86 0.99 1.02 1.05 1.14 1.18 1.17 1.19